GFSMW_500_temp_021.txt.gz
Temp
-15 -15 -15 -15 -15 -15 -15 -15 -15 -15 -15 -15 -15 -15 -15 -15 -15 -15 -16 -17 -17 -18 -18 -18 -18 -18 -19 -19 -19 -19 -19 -19 -19 -19 -19 -19 -19 -19 -19 -18 -18 -18 -18
-16 -16 -16 -16 -16 -16 -15 -15 -15 -15 -15 -15 -15 -15 -15 -15 -15 -16 -16 -16 -17 -17 -18 -19 -19 -19 -19 -20 -19 -19 -19 -19 -19 -19 -18 -18 -19 -19 -19 -19 -19 -19 -19
-16 -16 -16 -16 -16 -16 -16 -15 -16 -15 -15 -15 -15 -15 -15 -15 -15 -16 -16 -16 -17 -18 -18 -19 -19 -19 -19 -19 -19 -19 -19 -19 -19 -19 -19 -19 -19 -19 -19 -19 -20 -20 -20
-16 -16 -16 -16 -16 -16 -15 -15 -15 -15 -15 -15 -15 -15 -15 -15 -15 -16 -16 -16 -17 -18 -18 -18 -19 -19 -19 -19 -19 -19 -19 -19 -19 -19 -19 -20 -20 -20 -20 -20 -20 -20 -21
-16 -15 -16 -16 -15 -15 -15 -15 -15 -15 -15 -15 -15 -15 -15 -15 -15 -16 -17 -17 -17 -18 -18 -18 -19 -19 -20 -20 -19 -19 -19 -19 -19 -20 -20 -20 -21 -21 -21 -20 -21 -21 -22
-15 -15 -16 -15 -15 -14 -15 -15 -14 -14 -15 -15 -15 -15 -15 -16 -16 -16 -17 -17 -18 -18 -18 -19 -19 -19 -20 -20 -19 -19 -19 -20 -20 -21 -21 -21 -21 -22 -22 -22 -23 -25 -26
-15 -15 -15 -14 -14 -14 -14 -15 -15 -15 -15 -15 -15 -15 -16 -16 -17 -18 -18 -18 -18 -19 -19 -19 -19 -20 -20 -20 -20 -20 -20 -21 -21 -21 -22 -22 -22 -23 -24 -26 -27 -28 -29
-15 -14 -14 -14 -14 -14 -15 -15 -15 -15 -15 -15 -16 -16 -16 -17 -18 -18 -18 -18 -19 -19 -19 -20 -20 -20 -20 -20 -20 -21 -21 -21 -21 -22 -22 -23 -24 -26 -27 -29 -30 -30 -31
-14 -14 -14 -14 -14 -14 -15 -15 -15 -15 -15 -16 -16 -16 -17 -17 -18 -18 -18 -19 -19 -19 -20 -20 -20 -20 -21 -21 -21 -21 -22 -22 -23 -23 -23 -25 -27 -28 -29 -30 -32 -32 -31
-14 -14 -14 -14 -15 -15 -15 -15 -15 -16 -16 -16 -17 -17 -17 -18 -18 -18 -19 -19 -19 -20 -20 -21 -21 -21 -21 -21 -22 -22 -23 -23 -23 -25 -26 -27 -29 -30 -31 -32 -32 -32 -32
-14 -15 -15 -15 -15 -15 -15 -15 -16 -16 -16 -17 -17 -17 -18 -18 -19 -19 -19 -20 -20 -20 -21 -21 -21 -22 -22 -22 -22 -23 -23 -23 -25 -27 -28 -29 -31 -31 -32 -32 -32 -32 -32
-15 -15 -15 -15 -15 -16 -16 -16 -16 -16 -17 -17 -17 -18 -19 -19 -19 -19 -20 -20 -20 -21 -21 -21 -22 -22 -22 -22 -23 -23 -23 -24 -27 -28 -30 -31 -32 -32 -33 -32 -32 -32 -32
-15 -15 -15 -16 -16 -16 -16 -16 -17 -17 -18 -18 -18 -18 -19 -19 -19 -20 -20 -20 -21 -21 -21 -22 -22 -22 -23 -23 -23 -24 -24 -27 -28 -30 -31 -32 -32 -33 -32 -32 -32 -32 -32
-16 -16 -16 -16 -16 -17 -17 -17 -17 -18 -18 -18 -19 -19 -19 -20 -20 -20 -20 -21 -21 -21 -22 -22 -23 -23 -23 -23 -23 -24 -26 -28 -30 -31 -32 -32 -33 -33 -32 -32 -32 -32 -32
-16 -16 -16 -16 -17 -17 -17 -18 -18 -18 -19 -19 -19 -19 -20 -20 -20 -20 -21 -21 -21 -22 -22 -22 -23 -23 -23 -23 -24 -25 -27 -29 -31 -32 -32 -33 -33 -33 -33 -33 -33 -33 -32
-16 -17 -17 -17 -17 -17 -18 -18 -19 -19 -19 -19 -20 -20 -20 -20 -21 -21 -21 -22 -22 -22 -22 -23 -24 -24 -24 -24 -25 -27 -29 -31 -32 -32 -33 -33 -32 -32 -32 -32 -33 -33 -32
-17 -17 -17 -18 -18 -18 -19 -19 -19 -19 -19 -20 -20 -20 -21 -21 -21 -21 -22 -22 -22 -23 -23 -24 -24 -23 -24 -25 -26 -28 -30 -32 -32 -33 -33 -33 -33 -33 -33 -33 -32 -32 -32
-17 -18 -18 -18 -19 -19 -19 -19 -19 -19 -19 -20 -20 -21 -21 -21 -21 -21 -22 -22 -22 -23 -24 -24 -24 -24 -24 -26 -28 -30 -31 -32 -33 -33 -33 -33 -33 -33 -33 -32 -32 -32 -32
-18 -18 -18 -19 -19 -19 -19 -19 -19 -20 -20 -20 -21 -20 -21 -21 -21 -22 -22 -23 -23 -24 -24 -24 -24 -25 -25 -28 -29 -31 -32 -33 -33 -33 -33 -33 -33 -32 -32 -32 -33 -33 -33
-18 -18 -18 -19 -19 -19 -20 -19 -20 -20 -20 -20 -20 -21 -22 -22 -22 -22 -23 -23 -24 -24 -24 -25 -25 -26 -27 -29 -31 -32 -33 -33 -33 -33 -33 -33 -33 -32 -32 -33 -33 -33 -33
-18 -18 -19 -19 -19 -19 -20 -20 -20 -20 -20 -20 -21 -21 -22 -22 -22 -22 -24 -24 -24 -24 -25 -26 -27 -28 -29 -30 -32 -33 -33 -33 -33 -34 -33 -33 -33 -33 -32 -33 -33 -33 -33
-18 -19 -19 -19 -19 -19 -20 -20 -20 -20 -21 -21 -21 -21 -21 -22 -23 -24 -24 -24 -24 -24 -26 -27 -28 -28 -29 -31 -32 -33 -33 -34 -34 -34 -33 -33 -33 -33 -33 -33 -33 -33 -33
-19 -19 -19 -19 -19 -20 -20 -21 -21 -20 -21 -21 -21 -21 -22 -23 -25 -24 -25 -25 -26 -27 -27 -28 -28 -30 -31 -32 -33 -33 -34 -34 -34 -34 -34 -33 -33 -33 -33 -33 -34 -34 -34
-19 -19 -19 -20 -20 -20 -21 -21 -21 -21 -21 -21 -21 -22 -24 -25 -24 -25 -25 -27 -28 -28 -28 -29 -30 -31 -32 -33 -33 -34 -34 -34 -34 -34 -34 -34 -34 -34 -34 -34 -34 -34 -34
-19 -19 -20 -20 -20 -21 -21 -21 -21 -21 -22 -22 -23 -23 -24 -25 -25 -26 -27 -28 -29 -29 -30 -30 -31 -32 -33 -33 -34 -34 -34 -34 -34 -34 -34 -34 -34 -34 -34 -34 -34 -34 -34
-19 -20 -20 -21 -21 -21 -22 -22 -22 -22 -22 -22 -24 -24 -25 -25 -27 -28 -29 -29 -30 -30 -31 -31 -31 -33 -33 -34 -34 -35 -35 -34 -34 -34 -35 -35 -35 -35 -35 -35 -34 -34 -34

GFSMW_500_temp_024.txt.gz
Temp
-15 -15 -15 -15 -15 -15 -15 -15 -15 -15 -15 -15 -15 -15 -15 -14 -14 -14 -14 -14 -14 -15 -15 -16 -16 -17 -17 -18 -18 -19 -19 -19 -19 -19 -19 -19 -19 -19 -19 -19 -19 -19 -19
-15 -15 -16 -15 -15 -15 -15 -15 -15 -15 -15 -15 -15 -15 -14 -14 -14 -14 -14 -15 -15 -15 -16 -17 -17 -18 -18 -19 -19 -18 -18 -19 -19 -19 -19 -19 -19 -19 -20 -20 -20 -19 -20
-15 -15 -15 -15 -15 -15 -15 -15 -15 -15 -15 -15 -15 -14 -14 -14 -14 -14 -15 -15 -15 -16 -16 -17 -17 -18 -18 -18 -18 -19 -19 -19 -20 -20 -20 -19 -19 -19 -19 -19 -20 -20 -20
-15 -15 -15 -15 -15 -16 -15 -15 -15 -15 -14 -14 -14 -14 -14 -14 -15 -15 -15 -15 -16 -16 -17 -17 -18 -18 -18 -19 -19 -19 -20 -20 -20 -20 -20 -20 -20 -19 -19 -20 -20 -20 -20
-15 -15 -15 -15 -15 -15 -15 -15 -14 -14 -14 -15 -15 -14 -15 -15 -15 -15 -15 -16 -16 -17 -17 -18 -18 -18 -18 -18 -19 -20 -20 -20 -20 -20 -20 -21 -21 -21 -21 -21 -21 -21 -22
-15 -15 -15 -15 -15 -15 -15 -14 -14 -14 -15 -15 -15 -15 -15 -15 -15 -16 -16 -17 -17 -17 -18 -18 -18 -19 -19 -19 -20 -20 -20 -20 -21 -21 -21 -21 -22 -22 -22 -22 -23 -23 -24
-14 -15 -15 -15 -14 -14 -14 -14 -14 -14 -15 -15 -15 -15 -15 -16 -16 -16 -17 -17 -17 -18 -18 -18 -19 -19 -19 -20 -20 -21 -21 -21 -21 -22 -22 -22 -22 -22 -23 -24 -25 -26 -26
-14 -14 -14 -14 -14 -14 -14 -14 -15 -15 -15 -15 -15 -16 -16 -16 -16 -17 -17 -17 -18 -18 -19 -19 -19 -19 -20 -20 -21 -21 -21 -22 -22 -22 -22 -22 -23 -23 -24 -26 -27 -28 -29
-14 -14 -14 -14 -14 -14 -15 -15 -15 -15 -15 -15 -16 -16 -16 -17 -17 -17 -18 -18 -18 -19 -19 -19 -19 -20 -20 -20 -21 -22 -22 -22 -22 -22 -22 -23 -23 -25 -27 -29 -29 -30 -30
-14 -14 -14 -14 -15 -15 -15 -15 -15 -15 -16 -16 -16 -17 -17 -17 -17 -18 -18 -19 -20 -20 -20 -20 -20 -20 -21 -21 -21 -22 -22 -22 -22 -23 -23 -23 -24 -27 -29 -30 -31 -31 -32
-14 -14 -15 -15 -15 -15 -15 -16 -16 -16 -16 -17 -17 -17 -17 -18 -18 -18 -19 -19 -20 -20 -20 -20 -20 -21 -21 -21 -22 -22 -22 -23 -23 -23 -24 -25 -27 -29 -31 -31 -32 -32 -32
-15 -15 -15 -15 -15 -15 -16 -16 -16 -17 -17 -17 -17 -18 -18 -18 -18 -19 -19 -19 -20 -20 -20 -20 -20 -21 -21 -21 -22 -22 -22 -23 -23 -23 -25 -26 -29 -30 -31 -32 -32 -33 -32
-15 -15 -15 -15 -16 -16 -16 -16 -17 -17 -17 -18 -18 -18 -18 -19 -19 -19 -20 -20 -20 -20 -20 -21 -21 -21 -22 -21 -22 -22 -23 -24 -23 -24 -26 -28 -29 -31 -32 -33 -32 -33 -32
-15 -15 -15 -15 -16 -16 -16 -17 -17 -18 -18 -18 -18 -19 -19 -19 -19 -20 -20 -20 -20 -20 -21 -21 -21 -22 -22 -22 -23 -23 -24 -24 -24 -25 -27 -29 -31 -32 -32 -33 -33 -32 -32
-16 -16 -16 -16 -16 -17 -17 -17 -18 -18 -18 -19 -19 -19 -19 -20 -20 -20 -20 -20 -20 -21 -21 -21 -22 -22 -22 -23 -23 -24 -24 -25 -26 -27 -29 -31 -31 -32 -33 -32 -32 -32 -32
-16 -17 -17 -17 -17 -17 -17 -18 -18 -19 -19 -19 -19 -19 -19 -20 -20 -20 -20 -20 -21 -21 -22 -22 -22 -22 -22 -24 -24 -24 -25 -26 -27 -29 -30 -32 -32 -32 -32 -32 -32 -32 -32
-16 -17 -17 -17 -18 -18 -18 -18 -19 -19 -19 -19 -19 -20 -20 -20 -20 -20 -20 -21 -21 -21 -22 -22 -22 -23 -24 -24 -25 -25 -26 -28 -29 -30 -31 -32 -32 -32 -32 -32 -32 -32 -32
-16 -17 -17 -18 -18 -18 -18 -18 -19 -19 -19 -19 -20 -20 -20 -20 -20 -21 -21 -21 -22 -22 -22 -24 -24 -24 -24 -25 -26 -26 -28 -29 -30 -31 -32 -32 -33 -32 -32 -32 -32 -32 -32
-16 -17 -17 -18 -18 -19 -19 -19 -19 -19 -19 -19 -20 -20 -21 -20 -20 -21 -22 -21 -22 -23 -24 -25 -24 -24 -25 -27 -27 -28 -29 -30 -31 -32 -32 -33 -33 -33 -32 -32 -32 -32 -32
-17 -17 -18 -18 -19 -19 -19 -19 -20 -19 -19 -20 -20 -20 -20 -21 -21 -21 -22 -22 -23 -25 -25 -25 -25 -26 -26 -28 -28 -29 -30 -31 -32 -32 -33 -33 -33 -33 -33 -33 -32 -33 -33
-17 -18 -18 -19 -18 -19 -19 -19 -19 -20 -20 -21 -21 -21 -22 -21 -22 -22 -23 -24 -24 -25 -25 -25 -27 -28 -28 -29 -30 -30 -31 -32 -33 -33 -34 -34 -34 -33 -33 -33 -33 -33 -33
-18 -18 -19 -19 -19 -19 -19 -20 -20 -20 -21 -21 -21 -22 -22 -22 -22 -23 -24 -24 -25 -25 -26 -27 -28 -29 -29 -29 -30 -31 -32 -33 -33 -34 -34 -34 -34 -34 -34 -33 -33 -33 -33
-18 -19 -19 -19 -19 -19 -20 -20 -20 -21 -21 -21 -21 -22 -22 -22 -23 -23 -24 -25 -25 -27 -28 -29 -29 -30 -30 -30 -31 -32 -33 -33 -34 -34 -34 -34 -34 -34 -34 -34 -34 -34 -34
-19 -19 -19 -19 -20 -20 -20 -20 -21 -21 -22 -23 -23 -23 -24 -24 -24 -25 -25 -27 -29 -29 -29 -30 -30 -31 -31 -31 -31 -32 -33 -34 -34 -34 -35 -35 -35 -35 -35 -35 -35 -34 -34
-19 -19 -19 -20 -20 -20 -21 -21 -22 -23 -23 -23 -24 -24 -25 -25 -25 -26 -28 -29 -29 -29 -30 -31 -31 -31 -32 -32 -33 -33 -33 -34 -35 -35 -35 -35 -35 -35 -35 -35 -35 -35 -35
-19 -19 -20 -20 -20 -21 -22 -22 -23 -24 -24 -24 -25 -26 -26 -26 -27 -29 -29 -29 -30 -30 -31 -31 -31 -32 -32 -33 -33 -34 -34 -34 -35 -35 -35 -35 -35 -35 -35 -36 -36 -36 -36

GFSMW_500_temp_030.txt.gz
Temp
-14 -14 -14 -15 -15 -15 -15 -15 -15 -16 -15 -16 -16 -15 -15 -15 -15 -15 -15 -15 -15 -15 -16 -16 -16 -16 -17 -17 -17 -18 -18 -18 -18 -18 -19 -19 -19 -19 -20 -20 -20 -20 -20
-14 -14 -14 -15 -15 -16 -15 -16 -15 -15 -16 -15 -15 -15 -15 -15 -15 -15 -15 -15 -15 -16 -16 -16 -17 -17 -17 -17 -17 -18 -18 -18 -18 -19 -19 -19 -20 -20 -20 -20 -20 -20 -21
-14 -14 -14 -14 -15 -15 -15 -15 -16 -16 -15 -15 -15 -15 -15 -15 -15 -15 -15 -16 -16 -16 -16 -17 -17 -17 -17 -17 -18 -18 -18 -19 -19 -19 -19 -19 -19 -20 -20 -20 -21 -21 -21
-15 -14 -14 -14 -14 -15 -15 -15 -15 -16 -15 -15 -15 -15 -15 -15 -15 -16 -16 -16 -16 -16 -17 -17 -17 -17 -17 -18 -18 -19 -19 -19 -19 -19 -20 -20 -20 -20 -20 -20 -21 -21 -21
-14 -14 -15 -15 -15 -15 -15 -16 -15 -15 -15 -15 -15 -15 -16 -16 -16 -16 -16 -16 -16 -16 -17 -17 -17 -17 -18 -18 -19 -19 -19 -19 -19 -19 -19 -20 -20 -20 -21 -21 -21 -21 -22
-14 -14 -14 -15 -15 -15 -15 -15 -15 -15 -15 -15 -15 -15 -16 -15 -15 -16 -16 -16 -16 -17 -17 -17 -18 -18 -18 -19 -19 -19 -19 -19 -19 -19 -20 -20 -20 -21 -21 -21 -21 -21 -22
-14 -14 -15 -15 -15 -15 -15 -15 -15 -15 -15 -15 -15 -15 -15 -15 -16 -16 -16 -16 -17 -17 -18 -18 -18 -19 -19 -19 -19 -19 -19 -19 -20 -20 -20 -21 -21 -22 -22 -22 -22 -22 -23
-15 -15 -15 -15 -15 -15 -15 -15 -15 -15 -15 -15 -16 -15 -15 -16 -16 -16 -17 -17 -17 -18 -18 -18 -19 -19 -19 -19 -20 -19 -20 -20 -20 -21 -21 -22 -22 -22 -22 -22 -23 -24 -24
-15 -15 -15 -15 -15 -15 -15 -15 -16 -16 -16 -15 -15 -16 -16 -16 -17 -17 -17 -18 -18 -19 -19 -19 -20 -19 -19 -20 -20 -20 -20 -20 -20 -21 -21 -21 -22 -22 -23 -24 -24 -24 -24
-15 -15 -15 -15 -15 -15 -16 -16 -16 -16 -16 -16 -16 -16 -17 -17 -17 -17 -18 -18 -19 -19 -19 -19 -19 -20 -20 -19 -20 -20 -20 -21 -22 -22 -22 -22 -23 -23 -24 -25 -25 -25 -25
-15 -15 -15 -15 -16 -15 -15 -15 -15 -16 -16 -17 -17 -17 -17 -18 -18 -18 -19 -19 -19 -20 -20 -20 -20 -19 -20 -20 -20 -21 -21 -22 -22 -22 -22 -23 -24 -25 -25 -25 -25 -26 -26
-15 -15 -16 -15 -15 -15 -15 -16 -16 -17 -17 -17 -18 -18 -18 -18 -18 -18 -19 -19 -19 -20 -19 -19 -19 -20 -20 -20 -20 -21 -21 -22 -22 -23 -23 -25 -25 -25 -25 -26 -26 -27 -28
-15 -15 -15 -15 -15 -15 -16 -16 -16 -16 -16 -17 -17 -18 -18 -18 -18 -18 -19 -19 -19 -19 -19 -19 -20 -20 -20 -21 -22 -22 -22 -22 -23 -24 -25 -26 -25 -25 -26 -27 -28 -29 -30
-15 -15 -14 -14 -14 -14 -14 -15 -15 -16 -17 -17 -17 -18 -18 -18 -18 -19 -19 -19 -19 -19 -19 -20 -20 -21 -21 -22 -22 -22 -23 -24 -25 -26 -26 -25 -26 -27 -28 -29 -30 -31 -32
-14 -14 -14 -14 -14 -14 -15 -15 -16 -17 -17 -17 -18 -18 -18 -19 -19 -20 -19 -19 -19 -20 -20 -21 -21 -22 -23 -23 -23 -24 -25 -26 -26 -26 -26 -27 -28 -29 -30 -31 -31 -32 -33
-15 -14 -14 -15 -15 -16 -16 -16 -17 -17 -18 -17 -18 -18 -19 -19 -19 -19 -19 -19 -20 -20 -21 -22 -22 -23 -24 -24 -25 -25 -26 -26 -27 -27 -28 -29 -30 -30 -31 -32 -32 -33 -33
-16 -16 -16 -16 -16 -16 -16 -16 -17 -17 -18 -18 -18 -19 -19 -19 -19 -20 -20 -20 -20 -22 -23 -23 -24 -24 -24 -25 -26 -26 -27 -28 -28 -29 -30 -30 -31 -31 -32 -33 -33 -34 -34
-16 -16 -16 -16 -16 -16 -17 -17 -17 -19 -19 -19 -19 -19 -20 -20 -20 -20 -20 -21 -22 -22 -23 -24 -24 -25 -26 -26 -27 -28 -29 -29 -30 -30 -31 -31 -31 -32 -33 -34 -34 -34 -34
-16 -16 -16 -16 -16 -17 -17 -18 -19 -19 -19 -19 -20 -20 -20 -20 -20 -20 -21 -21 -22 -23 -23 -24 -25 -26 -26 -28 -29 -29 -30 -30 -30 -30 -31 -31 -32 -33 -33 -34 -35 -35 -34
-16 -16 -16 -16 -16 -17 -18 -18 -19 -19 -20 -20 -20 -20 -21 -21 -21 -20 -22 -24 -24 -24 -24 -25 -26 -27 -29 -30 -30 -30 -30 -30 -30 -31 -32 -32 -33 -33 -34 -35 -35 -35 -35
-16 -16 -16 -17 -17 -18 -18 -19 -19 -19 -20 -20 -21 -21 -21 -21 -22 -24 -23 -24 -24 -25 -25 -26 -28 -29 -30 -30 -30 -30 -30 -31 -31 -32 -32 -33 -33 -34 -35 -35 -35 -35 -35
-16 -17 -17 -18 -18 -18 -19 -19 -20 -20 -20 -20 -21 -21 -21 -22 -23 -23 -24 -24 -25 -25 -26 -28 -29 -30 -30 -30 -30 -31 -31 -31 -32 -33 -33 -33 -34 -35 -35 -35 -35 -35 -35
-17 -17 -18 -18 -18 -19 -19 -20 -20 -20 -20 -21 -21 -21 -22 -23 -24 -24 -24 -24 -25 -26 -28 -29 -30 -30 -30 -30 -31 -31 -31 -32 -33 -33 -33 -34 -34 -35 -35 -35 -35 -35 -36
-18 -18 -18 -18 -19 -19 -20 -20 -20 -20 -21 -21 -21 -22 -23 -24 -24 -24 -24 -25 -26 -28 -29 -30 -30 -30 -31 -31 -31 -31 -31 -32 -33 -33 -34 -34 -34 -35 -35 -35 -35 -35 -36
-18 -18 -19 -19 -19 -20 -20 -20 -20 -21 -21 -21 -22 -23 -23 -24 -24 -25 -26 -26 -28 -29 -30 -30 -31 -31 -31 -31 -31 -31 -32 -33 -33 -34 -34 -34 -35 -35 -35 -35 -35 -35 -36
-19 -19 -20 -20 -20 -20 -20 -21 -21 -21 -22 -22 -23 -24 -24 -24 -25 -26 -27 -28 -29 -30 -31 -31 -31 -31 -31 -31 -31 -32 -32 -33 -33 -34 -34 -34 -35 -35 -35 -35 -35 -36 -36

GFSMW_500_temp_033.txt.gz
Temp
-15 -15 -15 -15 -15 -15 -15 -15 -15 -15 -15 -16 -16 -15 -15 -15 -15 -15 -15 -15 -15 -15 -15 -16 -16 -16 -16 -16 -17 -17 -18 -18 -18 -19 -19 -19 -20 -19 -20 -20 -20 -20 -20
-15 -15 -15 -15 -15 -15 -15 -15 -15 -15 -16 -16 -15 -15 -15 -15 -15 -15 -15 -15 -15 -15 -16 -16 -16 -16 -17 -17 -18 -18 -19 -19 -19 -19 -19 -19 -20 -20 -20 -20 -20 -21 -21
-15 -15 -16 -16 -16 -16 -16 -16 -16 -16 -16 -16 -15 -15 -15 -15 -15 -15 -15 -15 -16 -16 -16 -16 -17 -17 -17 -18 -18 -19 -19 -19 -19 -20 -20 -19 -20 -20 -20 -20 -21 -21 -22
-15 -15 -15 -16 -16 -16 -16 -16 -16 -16 -16 -16 -15 -15 -16 -16 -15 -15 -16 -16 -16 -16 -16 -17 -17 -17 -18 -18 -19 -19 -19 -19 -19 -19 -20 -20 -20 -20 -20 -20 -21 -21 -21
-15 -15 -16 -16 -16 -16 -16 -16 -16 -15 -16 -16 -15 -16 -16 -15 -15 -15 -16 -16 -16 -16 -17 -17 -17 -18 -18 -18 -19 -19 -19 -19 -19 -19 -20 -20 -20 -20 -20 -21 -21 -22 -22
-15 -15 -16 -16 -16 -15 -15 -15 -15 -16 -16 -15 -16 -16 -16 -15 -16 -16 -16 -16 -16 -16 -17 -17 -18 -18 -19 -19 -19 -19 -19 -19 -19 -20 -20 -20 -20 -20 -20 -21 -21 -21 -22
-15 -15 -15 -15 -15 -15 -15 -15 -15 -16 -16 -16 -15 -16 -16 -16 -16 -16 -16 -16 -17 -17 -18 -18 -18 -19 -19 -19 -19 -19 -19 -20 -20 -20 -20 -20 -20 -21 -21 -22 -22 -22 -22
-15 -14 -15 -15 -15 -15 -15 -15 -16 -16 -15 -15 -16 -16 -16 -16 -16 -17 -17 -17 -17 -18 -18 -18 -19 -20 -19 -19 -19 -19 -20 -19 -19 -20 -20 -20 -21 -21 -22 -22 -23 -23 -23
-15 -15 -15 -15 -15 -15 -15 -16 -16 -16 -16 -16 -16 -16 -16 -16 -16 -16 -17 -17 -17 -18 -19 -19 -19 -19 -19 -19 -19 -19 -19 -20 -20 -20 -21 -22 -22 -23 -23 -24 -24 -24 -25
-15 -15 -15 -15 -15 -15 -15 -16 -16 -16 -16 -16 -16 -16 -16 -16 -16 -16 -17 -17 -18 -19 -19 -19 -19 -19 -20 -20 -20 -20 -20 -21 -22 -22 -22 -22 -23 -24 -24 -25 -25 -26 -26
-15 -15 -15 -15 -15 -16 -16 -16 -16 -16 -16 -16 -16 -16 -16 -17 -17 -17 -17 -18 -18 -19 -19 -19 -19 -20 -20 -20 -20 -20 -21 -21 -22 -22 -22 -23 -24 -25 -26 -26 -26 -26 -27
-16 -15 -15 -15 -16 -16 -16 -16 -16 -16 -16 -16 -16 -16 -17 -17 -17 -17 -18 -18 -19 -19 -19 -19 -19 -20 -20 -21 -21 -21 -22 -22 -23 -24 -24 -25 -25 -27 -26 -26 -27 -27 -28
-15 -15 -16 -16 -16 -16 -16 -16 -16 -16 -16 -16 -17 -17 -17 -17 -17 -18 -18 -19 -19 -20 -20 -20 -20 -20 -21 -21 -22 -22 -22 -23 -23 -24 -25 -27 -26 -26 -27 -28 -28 -29 -30
-15 -15 -16 -15 -15 -15 -15 -15 -15 -16 -16 -17 -17 -17 -18 -18 -18 -19 -19 -19 -20 -20 -20 -20 -21 -21 -21 -21 -22 -23 -23 -24 -24 -25 -26 -26 -27 -28 -29 -29 -30 -31 -31
-15 -15 -15 -15 -15 -15 -15 -15 -16 -17 -17 -17 -17 -18 -18 -18 -19 -19 -19 -19 -20 -20 -20 -20 -21 -21 -22 -22 -23 -23 -24 -24 -26 -26 -27 -29 -29 -30 -30 -30 -31 -31 -32
-15 -15 -15 -15 -15 -15 -14 -15 -16 -16 -16 -16 -17 -18 -18 -19 -19 -19 -19 -19 -19 -20 -20 -21 -21 -22 -23 -23 -23 -25 -26 -26 -27 -28 -29 -30 -30 -30 -30 -31 -32 -32 -32
-15 -15 -15 -15 -15 -15 -15 -15 -16 -16 -17 -17 -17 -18 -19 -19 -19 -20 -20 -20 -20 -20 -21 -22 -22 -22 -23 -24 -24 -25 -26 -27 -29 -30 -30 -30 -30 -31 -31 -32 -32 -32 -33
-16 -15 -15 -15 -15 -15 -15 -16 -16 -17 -17 -17 -18 -19 -19 -19 -20 -20 -20 -20 -21 -22 -22 -22 -23 -24 -24 -24 -25 -26 -28 -29 -30 -30 -30 -31 -31 -31 -32 -32 -33 -33 -34
-15 -15 -15 -15 -15 -15 -16 -16 -17 -17 -17 -18 -19 -19 -20 -20 -20 -20 -20 -20 -22 -22 -22 -23 -24 -24 -25 -25 -26 -28 -30 -30 -30 -31 -31 -31 -31 -31 -32 -33 -33 -34 -35
-15 -15 -15 -15 -16 -16 -17 -17 -17 -18 -18 -19 -19 -20 -20 -20 -21 -21 -21 -22 -22 -23 -23 -24 -25 -25 -25 -26 -29 -30 -30 -30 -31 -31 -31 -31 -31 -32 -33 -33 -34 -35 -35
-15 -15 -15 -16 -16 -17 -17 -18 -18 -18 -19 -19 -20 -20 -21 -21 -21 -21 -21 -22 -23 -24 -24 -25 -25 -25 -27 -29 -29 -30 -30 -31 -31 -31 -31 -31 -32 -33 -33 -33 -34 -35 -35
-16 -16 -16 -17 -17 -17 -18 -18 -18 -19 -19 -20 -20 -21 -21 -21 -21 -21 -22 -23 -24 -24 -25 -25 -25 -27 -28 -29 -30 -31 -31 -31 -31 -31 -31 -32 -32 -33 -33 -34 -34 -35 -35
-16 -16 -17 -17 -18 -18 -18 -18 -19 -19 -20 -21 -21 -21 -21 -21 -21 -22 -23 -24 -24 -24 -25 -26 -27 -28 -29 -30 -31 -31 -31 -31 -31 -31 -32 -32 -33 -34 -34 -34 -35 -35 -35
-17 -17 -18 -18 -18 -19 -19 -19 -20 -20 -21 -21 -21 -21 -21 -22 -22 -23 -24 -24 -25 -25 -26 -27 -28 -29 -30 -31 -31 -31 -31 -31 -31 -32 -32 -33 -34 -34 -34 -34 -35 -35 -35
-17 -18 -18 -19 -19 -19 -19 -20 -21 -21 -21 -21 -21 -21 -22 -22 -23 -24 -24 -25 -25 -26 -27 -28 -29 -30 -31 -31 -31 -31 -31 -31 -31 -32 -33 -34 -34 -34 -34 -34 -35 -35 -35
-18 -19 -19 -19 -19 -20 -20 -21 -21 -21 -21 -21 -21 -22 -23 -24 -24 -25 -25 -26 -26 -27 -28 -30 -31 -31 -31 -31 -31 -31 -31 -32 -32 -33 -34 -34 -35 -34 -35 -35 -35 -35 -36

GFSMW_500_temp_036.txt.gz
Temp
-15 -15 -15 -15 -15 -15 -15 -15 -15 -15 -15 -15 -15 -14 -15 -15 -15 -15 -15 -15 -15 -15 -15 -15 -15 -15 -16 -16 -16 -17 -17 -17 -18 -18 -18 -19 -19 -19 -19 -20 -20 -20 -20
-15 -15 -15 -15 -15 -15 -15 -15 -16 -15 -15 -15 -15 -15 -15 -15 -15 -15 -15 -15 -15 -15 -15 -15 -16 -16 -16 -17 -17 -18 -18 -19 -19 -19 -19 -19 -20 -20 -20 -20 -20 -20 -20
-15 -15 -15 -15 -15 -15 -15 -15 -15 -15 -15 -15 -15 -15 -15 -15 -15 -15 -15 -15 -15 -15 -16 -16 -16 -17 -17 -18 -18 -18 -19 -19 -20 -20 -20 -19 -19 -20 -20 -20 -20 -20 -20
-16 -15 -15 -16 -16 -16 -16 -15 -15 -16 -15 -15 -15 -15 -15 -15 -15 -15 -15 -16 -16 -16 -16 -16 -17 -17 -18 -18 -18 -19 -19 -19 -20 -20 -20 -20 -20 -19 -19 -19 -20 -20 -20
-16 -16 -16 -16 -16 -16 -15 -15 -15 -15 -16 -15 -15 -15 -16 -16 -16 -16 -16 -16 -16 -16 -16 -17 -17 -18 -18 -19 -19 -19 -19 -20 -20 -20 -20 -19 -19 -19 -20 -20 -20 -21 -21
-15 -15 -16 -16 -17 -17 -16 -16 -16 -16 -16 -15 -15 -16 -16 -16 -16 -16 -16 -16 -17 -17 -17 -18 -18 -19 -19 -19 -20 -20 -20 -19 -20 -20 -19 -19 -20 -20 -20 -21 -21 -22 -22
-15 -15 -15 -16 -16 -16 -16 -16 -15 -15 -16 -16 -16 -16 -16 -16 -16 -16 -16 -17 -17 -18 -18 -18 -19 -19 -19 -19 -19 -19 -19 -20 -19 -19 -20 -20 -20 -21 -21 -22 -22 -22 -23
-15 -15 -15 -15 -15 -15 -15 -16 -16 -15 -15 -16 -16 -16 -16 -16 -16 -17 -17 -17 -17 -18 -18 -18 -18 -18 -19 -19 -19 -19 -20 -20 -19 -20 -20 -21 -21 -22 -22 -22 -23 -23 -24
-15 -15 -15 -15 -15 -15 -15 -15 -16 -16 -16 -16 -16 -16 -16 -16 -16 -17 -17 -17 -17 -18 -18 -18 -18 -19 -19 -19 -20 -20 -20 -20 -20 -20 -21 -21 -22 -22 -23 -23 -23 -25 -26
-15 -15 -15 -15 -15 -15 -15 -15 -15 -15 -16 -16 -16 -16 -16 -16 -16 -17 -17 -17 -18 -18 -18 -18 -18 -19 -19 -20 -20 -20 -20 -20 -21 -21 -22 -22 -23 -23 -23 -24 -25 -26 -27
-15 -15 -16 -15 -15 -15 -16 -15 -15 -16 -16 -16 -16 -16 -16 -16 -16 -16 -17 -17 -17 -17 -18 -18 -19 -19 -20 -20 -20 -20 -20 -21 -22 -22 -23 -23 -23 -24 -25 -25 -26 -27 -28
-16 -16 -16 -16 -16 -16 -16 -16 -16 -16 -16 -16 -16 -16 -16 -16 -17 -16 -17 -17 -17 -18 -18 -19 -19 -20 -20 -20 -21 -21 -21 -22 -22 -22 -24 -24 -24 -25 -25 -27 -28 -29 -30
-16 -16 -16 -16 -16 -16 -16 -16 -16 -16 -16 -16 -16 -16 -16 -16 -16 -16 -16 -17 -18 -19 -19 -20 -20 -20 -21 -21 -21 -21 -21 -22 -23 -23 -24 -24 -25 -26 -26 -28 -29 -30 -30
-16 -16 -16 -16 -16 -16 -16 -16 -16 -16 -16 -16 -16 -16 -16 -17 -17 -17 -17 -17 -18 -19 -20 -20 -21 -20 -21 -21 -21 -22 -23 -23 -24 -24 -25 -25 -26 -27 -29 -30 -30 -30 -30
-16 -16 -16 -16 -16 -16 -16 -15 -15 -15 -16 -16 -16 -17 -17 -17 -17 -17 -17 -18 -19 -20 -20 -20 -21 -21 -22 -21 -21 -22 -23 -23 -25 -25 -25 -26 -27 -29 -30 -31 -31 -31 -31
-16 -16 -16 -15 -15 -15 -15 -15 -15 -15 -15 -15 -16 -16 -17 -17 -17 -18 -19 -20 -20 -20 -20 -21 -21 -21 -21 -22 -23 -23 -24 -24 -25 -25 -26 -28 -29 -30 -31 -31 -31 -31 -31
-16 -16 -16 -15 -15 -15 -15 -15 -15 -15 -15 -16 -16 -17 -17 -18 -18 -19 -20 -20 -20 -20 -20 -21 -21 -21 -21 -22 -23 -24 -24 -25 -26 -26 -28 -29 -30 -31 -31 -31 -31 -31 -32
-16 -16 -15 -15 -15 -15 -15 -15 -15 -15 -16 -16 -17 -17 -18 -18 -19 -19 -20 -20 -21 -21 -20 -21 -21 -21 -23 -23 -24 -24 -25 -26 -26 -27 -29 -30 -31 -31 -31 -31 -31 -31 -32
-16 -16 -16 -16 -16 -16 -15 -15 -16 -16 -16 -17 -18 -18 -18 -19 -19 -20 -21 -21 -21 -21 -21 -21 -22 -22 -23 -24 -25 -25 -26 -26 -27 -29 -30 -31 -31 -31 -31 -31 -31 -32 -33
-16 -16 -16 -16 -15 -16 -16 -16 -16 -17 -17 -18 -18 -18 -19 -19 -20 -21 -21 -21 -21 -21 -21 -22 -23 -23 -24 -25 -26 -26 -26 -27 -29 -30 -31 -31 -32 -32 -32 -32 -32 -32 -33
-16 -16 -16 -16 -16 -16 -17 -17 -17 -17 -18 -18 -19 -19 -19 -20 -21 -21 -21 -21 -21 -21 -22 -23 -24 -25 -25 -26 -26 -27 -28 -29 -30 -31 -32 -32 -32 -32 -32 -32 -33 -33 -34
-16 -16 -16 -16 -16 -17 -17 -17 -17 -18 -18 -19 -19 -19 -20 -21 -21 -21 -21 -21 -21 -22 -23 -24 -25 -25 -26 -26 -27 -28 -29 -30 -31 -32 -32 -32 -32 -32 -32 -33 -33 -34 -34
-16 -16 -16 -17 -17 -17 -17 -18 -18 -19 -19 -19 -20 -20 -21 -21 -21 -21 -21 -22 -22 -23 -24 -25 -25 -26 -26 -27 -28 -29 -30 -31 -32 -32 -32 -32 -32 -32 -33 -33 -34 -34 -35
-17 -17 -17 -17 -17 -18 -18 -18 -18 -19 -19 -20 -20 -21 -21 -21 -21 -21 -22 -22 -24 -24 -25 -25 -26 -26 -27 -28 -30 -31 -32 -32 -32 -32 -32 -32 -32 -33 -34 -34 -35 -35 -35
-17 -17 -17 -18 -18 -18 -18 -19 -19 -20 -20 -21 -21 -21 -22 -22 -22 -22 -23 -23 -24 -25 -25 -26 -26 -27 -28 -30 -31 -32 -32 -32 -32 -31 -32 -32 -33 -33 -34 -34 -35 -35 -35
-17 -18 -18 -18 -18 -19 -19 -20 -20 -20 -21 -21 -22 -22 -22 -22 -22 -23 -24 -25 -25 -26 -27 -27 -29 -29 -31 -32 -32 -32 -32 -32 -32 -32 -33 -33 -33 -34 -34 -35 -35 -35 -36

GFSMW_500_temp_039.txt.gz
Temp
-15 -16 -16 -16 -16 -16 -15 -15 -15 -15 -15 -15 -15 -15 -15 -15 -15 -15 -15 -15 -15 -15 -15 -15 -15 -15 -16 -16 -16 -16 -16 -16 -16 -17 -17 -17 -18 -18 -18 -18 -18 -19 -19
-16 -16 -16 -16 -16 -16 -15 -15 -15 -16 -16 -15 -15 -15 -15 -15 -15 -15 -15 -15 -15 -15 -15 -15 -15 -16 -16 -16 -17 -17 -17 -17 -17 -17 -18 -18 -18 -18 -19 -19 -19 -19 -19
-16 -16 -16 -16 -16 -16 -16 -16 -16 -15 -16 -16 -16 -16 -15 -15 -15 -15 -15 -15 -15 -15 -16 -16 -16 -16 -17 -17 -17 -17 -17 -17 -18 -18 -18 -18 -19 -19 -19 -20 -20 -20 -20
-16 -16 -15 -15 -16 -16 -16 -16 -16 -16 -16 -16 -16 -15 -15 -15 -15 -15 -15 -15 -15 -15 -16 -16 -16 -17 -17 -17 -17 -18 -18 -19 -19 -19 -19 -20 -19 -19 -19 -19 -20 -20 -21
-16 -16 -16 -16 -16 -15 -15 -15 -15 -16 -16 -16 -16 -16 -15 -15 -15 -15 -15 -15 -15 -15 -15 -16 -16 -16 -17 -17 -18 -18 -19 -19 -18 -19 -19 -20 -19 -20 -20 -20 -20 -21 -21
-16 -16 -16 -16 -16 -15 -15 -15 -15 -15 -16 -16 -15 -16 -16 -15 -15 -15 -16 -16 -16 -16 -16 -17 -17 -17 -17 -18 -18 -18 -18 -19 -19 -19 -20 -20 -20 -20 -20 -20 -21 -21 -22
-15 -15 -15 -16 -16 -16 -16 -15 -16 -15 -15 -15 -15 -16 -16 -16 -16 -16 -16 -16 -16 -17 -17 -17 -17 -17 -18 -18 -18 -19 -19 -19 -19 -20 -20 -20 -20 -20 -20 -21 -21 -21 -22
-16 -16 -16 -16 -16 -16 -16 -15 -16 -16 -15 -14 -15 -16 -16 -16 -16 -15 -16 -16 -16 -17 -17 -17 -17 -18 -18 -18 -19 -20 -20 -20 -20 -20 -20 -20 -21 -20 -21 -21 -22 -22 -23
-15 -15 -15 -15 -15 -16 -16 -16 -16 -16 -15 -16 -16 -16 -16 -16 -15 -16 -16 -16 -16 -17 -17 -17 -17 -18 -18 -19 -19 -20 -19 -20 -20 -20 -20 -21 -21 -20 -21 -22 -23 -23 -23
-16 -15 -15 -16 -15 -16 -16 -16 -16 -16 -16 -16 -16 -16 -16 -16 -16 -16 -16 -17 -17 -17 -17 -17 -18 -19 -19 -19 -20 -20 -21 -21 -20 -20 -20 -20 -21 -22 -22 -22 -23 -24 -25
-16 -16 -15 -15 -16 -16 -16 -16 -16 -16 -16 -16 -16 -16 -16 -16 -16 -16 -16 -17 -17 -17 -17 -18 -18 -19 -19 -20 -20 -21 -20 -20 -21 -21 -21 -21 -22 -22 -23 -24 -24 -25 -26
-16 -16 -16 -16 -16 -16 -16 -16 -16 -16 -16 -16 -16 -16 -16 -16 -16 -17 -16 -17 -17 -17 -18 -18 -18 -19 -19 -20 -21 -21 -21 -21 -21 -21 -22 -22 -23 -23 -24 -25 -25 -26 -27
-16 -16 -16 -16 -16 -16 -16 -16 -16 -16 -16 -16 -16 -16 -16 -16 -16 -16 -17 -17 -17 -17 -18 -18 -18 -19 -20 -20 -21 -21 -21 -21 -21 -21 -22 -23 -24 -24 -25 -25 -26 -27 -29
-16 -16 -16 -17 -17 -16 -16 -16 -16 -16 -16 -16 -16 -16 -16 -16 -17 -17 -17 -17 -17 -17 -18 -18 -19 -20 -20 -20 -21 -21 -21 -21 -22 -22 -23 -24 -24 -25 -26 -26 -27 -29 -30
-16 -16 -17 -17 -17 -17 -16 -17 -17 -16 -16 -16 -16 -16 -16 -16 -17 -17 -17 -17 -17 -18 -18 -19 -20 -20 -21 -21 -21 -21 -21 -21 -22 -23 -23 -24 -25 -26 -26 -27 -29 -30 -31
-16 -16 -16 -16 -16 -16 -16 -16 -16 -16 -16 -15 -15 -15 -15 -16 -16 -17 -17 -18 -18 -19 -19 -20 -20 -21 -21 -21 -21 -21 -21 -22 -23 -24 -25 -25 -26 -26 -27 -28 -30 -31 -31
-17 -16 -16 -16 -16 -16 -16 -16 -16 -15 -16 -16 -16 -16 -16 -16 -16 -17 -18 -18 -19 -20 -20 -20 -20 -21 -21 -21 -21 -22 -22 -23 -24 -25 -25 -26 -26 -27 -29 -30 -31 -32 -32
-17 -17 -16 -16 -16 -16 -16 -16 -16 -16 -16 -16 -16 -16 -16 -17 -17 -18 -18 -19 -19 -20 -20 -21 -21 -21 -22 -21 -22 -22 -23 -24 -25 -25 -26 -26 -27 -29 -30 -31 -32 -32 -32
-17 -17 -16 -16 -16 -16 -16 -16 -16 -16 -16 -16 -16 -16 -17 -17 -18 -18 -19 -19 -20 -20 -21 -21 -21 -21 -21 -22 -22 -23 -24 -25 -25 -26 -26 -27 -29 -31 -31 -32 -32 -32 -32
-17 -16 -16 -16 -16 -16 -16 -16 -16 -16 -16 -16 -17 -17 -17 -18 -18 -19 -19 -20 -21 -21 -21 -21 -21 -21 -22 -22 -23 -24 -25 -25 -26 -26 -28 -29 -31 -32 -32 -32 -32 -32 -32
-16 -16 -16 -16 -16 -16 -16 -16 -16 -16 -17 -17 -17 -17 -18 -18 -19 -19 -20 -20 -21 -21 -21 -21 -21 -22 -22 -23 -24 -25 -25 -26 -26 -27 -30 -31 -32 -32 -32 -32 -32 -32 -33
-16 -16 -16 -16 -16 -16 -16 -16 -17 -17 -17 -17 -18 -18 -18 -19 -19 -20 -21 -21 -21 -22 -21 -22 -22 -23 -24 -24 -25 -25 -26 -26 -27 -29 -31 -32 -32 -32 -32 -32 -32 -33 -33
-17 -17 -17 -17 -17 -16 -17 -17 -17 -17 -18 -18 -18 -18 -19 -19 -20 -21 -21 -22 -22 -22 -22 -22 -22 -23 -24 -25 -26 -26 -27 -29 -30 -31 -32 -32 -32 -32 -32 -33 -33 -33 -34
-17 -17 -17 -17 -17 -17 -17 -17 -18 -18 -18 -18 -18 -19 -19 -20 -21 -21 -22 -22 -22 -22 -23 -23 -23 -24 -25 -25 -26 -27 -29 -30 -31 -32 -32 -32 -32 -32 -32 -33 -33 -33 -34
-17 -17 -17 -17 -17 -18 -18 -18 -18 -18 -18 -19 -19 -20 -20 -21 -22 -22 -22 -22 -23 -23 -23 -24 -24 -25 -25 -26 -26 -28 -29 -31 -32 -32 -32 -32 -33 -33 -33 -33 -33 -34 -34
-17 -17 -18 -18 -18 -18 -18 -18 -18 -19 -19 -20 -20 -20 -21 -22 -22 -22 -23 -23 -24 -24 -25 -25 -26 -26 -27 -27 -29 -30 -31 -31 -32 -32 -32 -33 -33 -33 -33 -34 -34 -34 -35

GFSMW_500_temp_042.txt.gz
Temp
-16 -16 -16 -16 -16 -16 -15 -16 -15 -15 -15 -15 -15 -16 -16 -16 -16 -16 -16 -16 -16 -15 -15 -15 -15 -15 -16 -16 -15 -15 -16 -15 -16 -16 -16 -17 -17 -17 -17 -18 -18 -18 -18
-15 -16 -16 -16 -15 -15 -15 -15 -16 -16 -16 -16 -16 -16 -16 -16 -16 -16 -16 -16 -15 -15 -15 -15 -15 -16 -16 -15 -15 -15 -15 -16 -17 -17 -17 -17 -17 -18 -18 -18 -18 -18 -18
-16 -16 -16 -15 -15 -16 -16 -16 -16 -16 -16 -16 -16 -16 -16 -16 -16 -16 -15 -15 -16 -16 -16 -16 -16 -16 -16 -15 -16 -15 -16 -16 -17 -18 -18 -18 -19 -19 -18 -18 -19 -19 -19
-16 -16 -16 -16 -16 -16 -16 -16 -16 -16 -16 -16 -16 -16 -16 -16 -16 -16 -16 -16 -16 -16 -16 -16 -16 -16 -16 -15 -16 -16 -16 -17 -18 -18 -18 -18 -19 -19 -19 -18 -19 -19 -20
-16 -15 -16 -16 -16 -16 -16 -16 -16 -16 -16 -16 -16 -16 -16 -16 -16 -16 -16 -16 -16 -16 -16 -16 -16 -16 -15 -16 -16 -17 -17 -17 -18 -18 -18 -18 -19 -19 -20 -20 -20 -19 -20
-16 -16 -16 -16 -16 -16 -16 -16 -15 -15 -16 -16 -16 -16 -16 -15 -16 -16 -16 -16 -16 -16 -16 -16 -16 -16 -16 -17 -17 -17 -17 -18 -18 -18 -19 -20 -20 -20 -20 -20 -20 -20 -20
-16 -15 -15 -15 -16 -16 -15 -15 -15 -15 -16 -15 -15 -16 -15 -15 -16 -15 -16 -16 -16 -16 -16 -16 -16 -16 -17 -17 -17 -17 -18 -18 -18 -19 -19 -20 -20 -20 -20 -20 -20 -20 -21
-16 -16 -16 -16 -16 -15 -15 -16 -16 -16 -16 -15 -15 -16 -15 -15 -15 -16 -16 -16 -16 -16 -16 -16 -16 -16 -16 -17 -17 -18 -18 -18 -19 -19 -20 -20 -20 -20 -21 -21 -21 -21 -22
-16 -16 -16 -16 -16 -16 -16 -16 -16 -16 -16 -16 -16 -16 -16 -16 -16 -16 -16 -16 -16 -16 -16 -16 -17 -17 -17 -17 -18 -18 -18 -19 -19 -20 -20 -20 -21 -21 -20 -21 -21 -21 -22
-16 -16 -16 -16 -16 -16 -16 -16 -16 -16 -16 -16 -16 -17 -16 -16 -16 -16 -16 -16 -16 -16 -17 -17 -17 -17 -17 -17 -18 -18 -19 -20 -20 -21 -20 -21 -21 -21 -21 -21 -21 -22 -23
-16 -16 -16 -16 -16 -16 -16 -16 -16 -16 -16 -16 -16 -16 -16 -16 -16 -16 -16 -16 -16 -17 -17 -17 -17 -17 -18 -18 -18 -19 -20 -20 -20 -21 -21 -21 -21 -21 -21 -21 -22 -23 -24
-16 -16 -16 -16 -16 -16 -16 -16 -16 -16 -16 -16 -16 -16 -17 -17 -16 -16 -16 -16 -16 -17 -17 -17 -17 -18 -18 -19 -19 -20 -20 -21 -21 -21 -21 -21 -21 -22 -22 -22 -23 -24 -25
-16 -16 -16 -16 -16 -16 -16 -16 -16 -16 -16 -16 -16 -17 -17 -16 -16 -16 -16 -16 -16 -16 -17 -18 -18 -18 -18 -19 -20 -20 -21 -21 -21 -21 -21 -21 -21 -22 -23 -23 -24 -25 -25
-16 -15 -16 -16 -16 -16 -16 -16 -16 -16 -16 -16 -16 -16 -16 -16 -16 -16 -16 -16 -16 -17 -18 -18 -18 -18 -19 -19 -20 -21 -20 -21 -21 -21 -21 -22 -22 -23 -23 -24 -25 -25 -26
-15 -16 -16 -16 -17 -17 -17 -17 -17 -16 -16 -16 -16 -16 -16 -16 -16 -16 -16 -17 -17 -17 -17 -18 -18 -19 -19 -20 -20 -20 -20 -21 -21 -21 -22 -22 -23 -23 -24 -25 -26 -26 -27
-16 -16 -17 -17 -17 -17 -16 -17 -17 -17 -17 -17 -16 -16 -16 -16 -16 -16 -16 -16 -17 -17 -17 -18 -19 -19 -19 -20 -21 -21 -21 -21 -22 -22 -22 -22 -23 -24 -25 -26 -26 -28 -29
-16 -16 -17 -17 -17 -17 -17 -17 -17 -16 -16 -16 -16 -16 -16 -16 -16 -16 -16 -17 -17 -17 -18 -18 -19 -19 -21 -21 -21 -22 -22 -22 -22 -22 -22 -23 -24 -25 -26 -27 -28 -29 -30
-16 -17 -17 -17 -17 -17 -17 -17 -17 -17 -16 -16 -16 -16 -16 -16 -16 -16 -17 -17 -17 -18 -18 -19 -19 -20 -21 -21 -22 -22 -21 -22 -22 -23 -23 -24 -25 -26 -27 -28 -29 -30 -31
-16 -17 -17 -17 -17 -17 -17 -17 -16 -16 -16 -16 -16 -16 -16 -17 -17 -17 -17 -17 -18 -18 -19 -20 -20 -21 -22 -22 -22 -22 -22 -22 -23 -23 -24 -25 -26 -27 -28 -30 -31 -32 -32
-17 -17 -17 -17 -17 -17 -16 -16 -16 -16 -16 -16 -16 -17 -17 -17 -17 -17 -18 -18 -19 -19 -20 -20 -21 -21 -22 -22 -22 -22 -22 -23 -23 -24 -25 -26 -27 -29 -30 -31 -32 -32 -32
-17 -17 -17 -17 -17 -16 -16 -16 -16 -16 -16 -17 -17 -17 -17 -18 -18 -18 -18 -19 -19 -20 -20 -21 -21 -22 -22 -22 -22 -23 -23 -24 -24 -24 -25 -26 -28 -30 -31 -32 -32 -32 -32
-17 -17 -17 -16 -16 -17 -16 -16 -16 -17 -17 -17 -17 -17 -18 -18 -18 -19 -19 -19 -20 -20 -21 -21 -22 -22 -22 -22 -23 -23 -24 -24 -25 -25 -26 -27 -29 -31 -32 -32 -32 -32 -33
-17 -17 -17 -17 -17 -17 -17 -17 -17 -17 -17 -17 -18 -18 -18 -19 -19 -19 -20 -20 -20 -20 -21 -21 -22 -22 -23 -23 -23 -24 -25 -25 -26 -27 -28 -30 -30 -31 -32 -32 -33 -33 -33
-17 -17 -17 -17 -17 -17 -17 -17 -17 -18 -18 -18 -18 -18 -19 -19 -20 -20 -20 -20 -20 -21 -21 -22 -22 -23 -23 -23 -23 -24 -25 -26 -27 -28 -29 -30 -31 -31 -32 -32 -33 -33 -33
-17 -17 -17 -17 -17 -18 -18 -18 -18 -18 -18 -18 -18 -19 -19 -20 -20 -20 -20 -20 -21 -21 -22 -22 -23 -23 -23 -24 -24 -25 -25 -26 -27 -28 -30 -30 -31 -31 -32 -33 -34 -34 -34
-17 -18 -18 -18 -18 -18 -18 -18 -18 -18 -19 -19 -19 -19 -20 -20 -20 -20 -20 -21 -22 -22 -23 -23 -23 -24 -24 -25 -25 -26 -27 -28 -29 -30 -30 -31 -31 -32 -34 -34 -34 -34 -35

GFSMW_500_temp_045.txt.gz
Temp
-17 -16 -15 -15 -14 -14 -14 -14 -14 -15 -15 -14 -15 -15 -15 -15 -16 -15 -15 -16 -16 -16 -16 -16 -15 -15 -15 -15 -15 -15 -15 -15 -15 -15 -15 -16 -16 -17 -17 -17 -17 -17 -18
-15 -15 -15 -15 -15 -15 -14 -14 -14 -15 -15 -15 -15 -15 -15 -15 -15 -15 -16 -16 -16 -16 -16 -16 -15 -15 -15 -16 -15 -15 -15 -15 -15 -15 -16 -17 -17 -15 -15 -18 -18 -18 -18
-16 -16 -15 -15 -15 -15 -15 -15 -15 -15 -15 -15 -15 -15 -15 -15 -15 -16 -16 -16 -16 -16 -16 -16 -16 -16 -16 -16 -15 -15 -15 -15 -15 -16 -16 -17 -17 -18 -17 -16 -17 -18 -19
-15 -15 -15 -15 -15 -15 -15 -15 -15 -15 -15 -15 -15 -15 -15 -15 -15 -16 -16 -16 -16 -16 -16 -16 -16 -16 -16 -16 -16 -15 -15 -15 -16 -16 -16 -17 -17 -18 -18 -18 -17 -17 -19
-15 -15 -15 -15 -15 -15 -15 -15 -15 -15 -15 -15 -15 -15 -15 -15 -15 -15 -15 -16 -16 -16 -16 -16 -16 -16 -16 -16 -16 -15 -16 -16 -16 -16 -17 -17 -18 -18 -18 -19 -20 -20 -19
-15 -15 -15 -15 -15 -15 -15 -15 -15 -15 -16 -16 -16 -16 -16 -16 -16 -16 -16 -16 -16 -16 -16 -16 -16 -16 -16 -16 -16 -16 -16 -16 -16 -17 -18 -18 -18 -18 -19 -19 -19 -20 -20
-15 -15 -16 -16 -16 -16 -15 -15 -15 -15 -15 -15 -15 -16 -16 -16 -16 -14 -15 -16 -16 -16 -16 -16 -16 -16 -16 -16 -16 -16 -17 -16 -17 -17 -18 -18 -18 -19 -19 -20 -20 -20 -21
-15 -15 -16 -16 -16 -16 -16 -16 -16 -16 -16 -15 -15 -16 -16 -16 -15 -15 -14 -15 -16 -16 -16 -16 -16 -16 -16 -16 -17 -17 -17 -17 -17 -17 -18 -18 -19 -19 -20 -20 -20 -21 -21
-15 -15 -16 -16 -16 -16 -16 -16 -16 -16 -16 -15 -16 -16 -17 -16 -16 -16 -16 -16 -16 -16 -16 -16 -16 -16 -17 -17 -17 -17 -17 -18 -18 -18 -18 -19 -20 -20 -20 -20 -21 -21 -22
-16 -16 -16 -16 -16 -16 -16 -16 -16 -16 -15 -16 -16 -16 -16 -16 -16 -16 -16 -16 -16 -16 -16 -16 -16 -16 -16 -17 -17 -17 -18 -18 -18 -19 -19 -20 -20 -20 -21 -21 -21 -22 -22
-16 -16 -16 -16 -16 -16 -16 -16 -16 -16 -16 -16 -16 -16 -16 -16 -16 -16 -16 -16 -16 -16 -16 -16 -16 -16 -16 -17 -17 -17 -18 -18 -19 -19 -20 -20 -21 -21 -21 -21 -21 -22 -22
-16 -16 -16 -16 -16 -16 -16 -16 -16 -16 -16 -16 -16 -16 -16 -16 -16 -16 -16 -16 -16 -16 -16 -16 -16 -16 -17 -18 -18 -18 -18 -20 -19 -20 -20 -20 -21 -21 -21 -21 -21 -22 -22
-16 -16 -16 -16 -16 -16 -16 -16 -17 -17 -17 -17 -16 -16 -16 -16 -16 -16 -16 -16 -16 -16 -16 -16 -16 -16 -17 -18 -18 -18 -19 -20 -19 -19 -20 -21 -21 -21 -21 -22 -22 -22 -23
-16 -16 -16 -16 -16 -16 -16 -16 -17 -17 -17 -16 -16 -16 -16 -16 -17 -17 -16 -16 -16 -16 -16 -16 -16 -17 -17 -17 -18 -19 -19 -20 -20 -21 -21 -21 -22 -22 -22 -22 -23 -23 -24
-16 -16 -16 -16 -16 -16 -17 -17 -17 -17 -17 -17 -17 -17 -17 -16 -16 -16 -16 -16 -16 -16 -16 -16 -17 -17 -17 -18 -19 -19 -19 -19 -21 -21 -22 -22 -22 -22 -22 -23 -24 -24 -25
-16 -16 -16 -16 -16 -16 -17 -17 -17 -17 -17 -17 -17 -17 -17 -17 -16 -16 -16 -16 -16 -16 -17 -17 -17 -17 -18 -18 -19 -19 -19 -20 -21 -22 -22 -22 -22 -22 -23 -23 -24 -25 -26
-16 -16 -16 -16 -16 -17 -17 -17 -17 -17 -17 -17 -17 -17 -16 -16 -16 -16 -16 -16 -16 -17 -17 -17 -17 -18 -18 -19 -19 -20 -20 -21 -22 -22 -22 -22 -22 -23 -23 -24 -24 -25 -27
-16 -16 -16 -16 -17 -17 -18 -18 -17 -17 -17 -17 -17 -16 -16 -16 -16 -16 -16 -17 -17 -17 -18 -18 -18 -19 -19 -19 -19 -20 -21 -21 -22 -22 -22 -23 -23 -23 -24 -25 -26 -27 -27
-16 -16 -16 -17 -17 -17 -17 -17 -17 -17 -17 -17 -17 -16 -16 -16 -16 -17 -17 -17 -17 -18 -18 -18 -19 -19 -19 -20 -20 -20 -21 -22 -22 -22 -22 -23 -23 -24 -25 -26 -27 -28 -29
-16 -16 -16 -17 -17 -17 -17 -17 -17 -17 -17 -17 -17 -17 -17 -17 -17 -17 -17 -17 -18 -18 -18 -19 -19 -19 -20 -20 -20 -21 -21 -21 -22 -22 -23 -23 -24 -25 -25 -27 -29 -29 -31
-16 -16 -16 -17 -17 -17 -17 -17 -17 -17 -17 -17 -17 -17 -17 -17 -17 -17 -18 -18 -18 -18 -19 -19 -19 -19 -20 -20 -20 -21 -21 -22 -22 -22 -23 -23 -25 -26 -26 -27 -28 -30 -31
-16 -16 -17 -17 -17 -17 -17 -17 -17 -17 -17 -17 -17 -17 -17 -17 -18 -18 -18 -18 -19 -19 -19 -19 -19 -20 -20 -20 -21 -21 -22 -22 -23 -23 -24 -24 -25 -26 -28 -29 -30 -31 -31
-16 -16 -17 -17 -17 -17 -17 -17 -17 -17 -17 -17 -17 -17 -18 -18 -18 -18 -19 -19 -19 -19 -19 -20 -20 -20 -21 -21 -21 -22 -23 -23 -24 -24 -25 -26 -27 -28 -29 -30 -30 -31 -31
-16 -16 -17 -17 -17 -17 -17 -17 -17 -17 -17 -18 -18 -18 -18 -18 -19 -19 -19 -19 -20 -20 -20 -20 -20 -21 -21 -21 -22 -22 -23 -24 -25 -25 -26 -27 -28 -29 -30 -31 -31 -31 -32
-17 -17 -17 -17 -17 -17 -17 -17 -17 -18 -18 -18 -18 -18 -19 -19 -19 -19 -19 -19 -20 -20 -20 -20 -21 -21 -21 -22 -23 -23 -24 -24 -25 -25 -27 -28 -29 -30 -31 -31 -32 -32 -33
-17 -17 -17 -17 -17 -18 -18 -18 -18 -18 -18 -18 -19 -19 -19 -19 -19 -19 -20 -20 -20 -21 -21 -21 -21 -22 -22 -23 -24 -24 -25 -26 -27 -28 -29 -30 -31 -31 -31 -32 -33 -33 -34

GFSMW_500_temp_048.txt.gz
Temp
-15 -15 -15 -15 -15 -14 -14 -14 -15 -15 -15 -14 -14 -14 -15 -15 -14 -14 -14 -15 -15 -15 -15 -15 -15 -15 -15 -15 -15 -15 -15 -15 -15 -15 -15 -15 -15 -15 -16 -16 -17 -17 -17
-15 -16 -15 -15 -15 -14 -14 -15 -15 -14 -14 -14 -14 -14 -14 -14 -14 -15 -15 -15 -15 -15 -15 -15 -15 -15 -15 -15 -15 -15 -16 -16 -16 -15 -15 -15 -15 -15 -15 -16 -16 -16 -17
-15 -15 -15 -15 -15 -15 -15 -15 -15 -15 -15 -14 -15 -15 -15 -15 -15 -15 -15 -15 -15 -15 -15 -15 -15 -15 -15 -16 -16 -16 -16 -16 -16 -16 -15 -15 -15 -16 -16 -16 -16 -16 -17
-15 -15 -15 -14 -14 -14 -14 -14 -14 -14 -14 -15 -15 -15 -15 -15 -15 -15 -15 -15 -16 -16 -16 -16 -16 -16 -16 -16 -16 -16 -16 -16 -15 -16 -16 -16 -16 -16 -17 -17 -16 -16 -17
-15 -15 -15 -14 -14 -14 -14 -15 -15 -15 -15 -15 -15 -15 -15 -15 -16 -16 -17 -16 -16 -16 -16 -16 -16 -15 -16 -16 -16 -16 -16 -16 -16 -16 -16 -16 -16 -17 -18 -18 -18 -18 -18
-15 -15 -15 -15 -15 -15 -15 -15 -15 -15 -15 -15 -15 -15 -15 -15 -16 -16 -16 -16 -15 -17 -16 -16 -16 -16 -16 -16 -16 -16 -16 -16 -16 -17 -16 -17 -17 -17 -18 -17 -18 -18 -19
-14 -15 -15 -15 -15 -15 -15 -15 -15 -15 -15 -15 -16 -15 -15 -15 -16 -15 -16 -16 -15 -15 -16 -16 -16 -16 -16 -16 -16 -16 -16 -16 -16 -17 -17 -17 -18 -18 -18 -18 -19 -19 -20
-14 -15 -15 -15 -15 -15 -15 -15 -16 -16 -15 -15 -15 -16 -16 -17 -17 -16 -16 -16 -16 -16 -16 -16 -16 -16 -16 -16 -16 -16 -16 -16 -17 -17 -17 -17 -18 -18 -18 -19 -20 -20 -20
-16 -16 -15 -15 -14 -15 -15 -15 -15 -15 -15 -15 -16 -15 -16 -17 -16 -16 -15 -15 -16 -16 -16 -16 -16 -16 -16 -16 -16 -16 -17 -17 -17 -18 -18 -18 -18 -18 -19 -19 -20 -20 -20
-15 -15 -16 -16 -15 -15 -14 -15 -16 -15 -15 -15 -15 -16 -16 -16 -16 -16 -16 -15 -15 -16 -16 -16 -16 -16 -16 -16 -16 -16 -17 -17 -17 -17 -18 -18 -19 -19 -20 -20 -20 -20 -21
-14 -15 -16 -16 -17 -13 -14 -14 -15 -15 -16 -16 -16 -16 -15 -16 -16 -16 -16 -15 -16 -16 -16 -16 -16 -16 -16 -16 -16 -16 -16 -16 -17 -18 -18 -18 -19 -19 -20 -20 -21 -21 -21
-15 -15 -16 -16 -16 -16 -16 -15 -15 -16 -17 -16 -16 -17 -16 -16 -16 -16 -16 -16 -16 -16 -16 -16 -16 -16 -16 -16 -16 -16 -16 -17 -18 -18 -19 -19 -20 -20 -21 -21 -21 -21 -22
-15 -15 -15 -16 -16 -16 -16 -16 -16 -16 -16 -16 -16 -16 -17 -17 -16 -16 -16 -16 -16 -16 -16 -16 -16 -16 -16 -16 -17 -17 -17 -18 -18 -18 -19 -20 -20 -21 -21 -21 -22 -22 -22
-15 -15 -15 -15 -15 -16 -16 -16 -16 -16 -16 -16 -16 -17 -17 -17 -17 -17 -17 -17 -16 -16 -16 -16 -16 -16 -16 -17 -17 -18 -17 -18 -19 -19 -19 -20 -20 -21 -21 -22 -22 -22 -23
-15 -15 -15 -15 -15 -15 -15 -15 -16 -16 -16 -16 -16 -17 -17 -17 -17 -17 -17 -17 -17 -17 -16 -16 -16 -16 -17 -17 -17 -18 -18 -18 -19 -19 -20 -20 -20 -21 -22 -22 -22 -23 -23
-15 -15 -15 -15 -15 -15 -15 -15 -16 -16 -16 -17 -17 -17 -17 -17 -17 -17 -17 -17 -17 -16 -16 -16 -16 -17 -17 -18 -18 -18 -18 -19 -19 -19 -20 -20 -21 -21 -22 -22 -22 -23 -23
-15 -16 -16 -15 -15 -15 -15 -16 -16 -17 -17 -17 -17 -18 -17 -17 -17 -17 -16 -16 -16 -16 -17 -17 -17 -17 -18 -18 -18 -18 -19 -19 -19 -19 -20 -20 -21 -22 -22 -22 -22 -23 -24
-15 -15 -16 -15 -15 -16 -16 -16 -16 -17 -17 -18 -17 -17 -17 -17 -17 -17 -17 -17 -17 -17 -17 -17 -17 -17 -18 -18 -18 -19 -19 -19 -20 -20 -20 -21 -21 -22 -22 -22 -23 -23 -24
-15 -15 -15 -16 -16 -16 -16 -16 -17 -17 -17 -17 -17 -17 -17 -17 -17 -17 -17 -17 -17 -17 -17 -18 -18 -18 -18 -18 -19 -20 -20 -20 -20 -21 -21 -21 -22 -22 -23 -23 -23 -24 -25
-14 -15 -15 -15 -16 -16 -16 -16 -16 -17 -17 -17 -17 -17 -17 -17 -17 -17 -17 -17 -17 -18 -18 -18 -18 -18 -18 -19 -20 -20 -20 -20 -20 -21 -21 -22 -22 -22 -23 -24 -24 -25 -26
-15 -14 -15 -15 -16 -16 -16 -17 -17 -17 -17 -17 -17 -17 -17 -17 -17 -17 -17 -17 -17 -18 -18 -18 -19 -19 -19 -19 -20 -20 -20 -20 -21 -21 -21 -22 -22 -23 -24 -25 -25 -26 -27
-15 -15 -15 -15 -16 -16 -16 -17 -17 -17 -17 -17 -17 -17 -17 -17 -17 -17 -17 -18 -18 -18 -19 -19 -19 -19 -19 -20 -20 -20 -21 -21 -21 -21 -21 -22 -23 -24 -25 -25 -26 -28 -29
-15 -15 -15 -15 -16 -16 -17 -17 -17 -17 -17 -17 -17 -17 -17 -17 -17 -17 -18 -18 -18 -19 -19 -19 -20 -20 -20 -20 -21 -21 -21 -21 -21 -22 -22 -23 -25 -25 -26 -27 -28 -29 -30
-16 -16 -16 -16 -16 -16 -17 -17 -17 -17 -17 -17 -17 -17 -17 -18 -18 -18 -18 -19 -19 -19 -19 -20 -20 -20 -20 -21 -21 -21 -21 -21 -22 -23 -24 -25 -26 -26 -27 -28 -29 -31 -31
-16 -16 -16 -16 -17 -17 -17 -17 -17 -17 -17 -17 -17 -18 -18 -18 -19 -19 -19 -19 -19 -20 -20 -20 -20 -20 -21 -21 -21 -21 -22 -22 -23 -24 -25 -26 -27 -28 -29 -30 -31 -32 -32
-16 -17 -17 -17 -17 -17 -17 -17 -17 -17 -17 -18 -18 -18 -19 -19 -19 -19 -19 -19 -20 -20 -20 -20 -20 -21 -21 -21 -22 -22 -23 -23 -25 -26 -26 -27 -28 -30 -30 -31 -32 -33 -33

GFSMW_500_temp_054.txt.gz
Temp
-14 -14 -14 -14 -14 -14 -14 -14 -14 -13 -12 -11 -11 -12 -12 -12 -13 -14 -13 -14 -15 -14 -15 -16 -16 -15 -16 -15 -15 -15 -15 -15 -15 -15 -15 -15 -15 -15 -15 -15 -15 -15 -15
-14 -14 -14 -14 -14 -14 -15 -14 -14 -14 -14 -13 -13 -14 -14 -14 -14 -14 -14 -15 -15 -15 -15 -16 -16 -16 -16 -16 -15 -15 -15 -16 -15 -15 -15 -15 -15 -15 -15 -15 -15 -15 -15
-15 -15 -14 -14 -14 -14 -14 -14 -14 -14 -14 -14 -14 -14 -13 -13 -14 -14 -14 -15 -15 -15 -15 -15 -15 -15 -15 -15 -15 -16 -15 -15 -15 -15 -15 -15 -15 -15 -15 -15 -15 -15 -15
-15 -15 -14 -14 -14 -14 -14 -14 -14 -14 -14 -14 -14 -14 -14 -14 -14 -14 -14 -15 -15 -15 -15 -15 -15 -15 -15 -15 -16 -16 -16 -16 -16 -15 -15 -15 -15 -15 -15 -15 -15 -15 -15
-15 -15 -14 -14 -14 -14 -14 -14 -14 -14 -14 -14 -14 -14 -14 -14 -15 -15 -15 -14 -15 -15 -16 -16 -16 -16 -16 -15 -15 -16 -16 -16 -16 -16 -16 -16 -16 -16 -15 -15 -15 -16 -16
-14 -15 -14 -14 -14 -14 -14 -14 -14 -14 -14 -14 -14 -14 -14 -14 -14 -14 -15 -15 -15 -15 -15 -15 -15 -15 -15 -15 -15 -16 -16 -16 -16 -16 -16 -16 -16 -16 -16 -16 -16 -16 -16
-14 -14 -15 -14 -14 -14 -14 -14 -15 -14 -14 -15 -15 -15 -15 -15 -15 -15 -15 -15 -15 -15 -15 -15 -15 -15 -15 -16 -16 -16 -16 -16 -16 -16 -16 -16 -16 -16 -16 -16 -16 -16 -17
-14 -14 -14 -14 -14 -14 -14 -15 -15 -15 -15 -15 -15 -15 -15 -16 -15 -16 -16 -15 -15 -15 -15 -15 -15 -16 -16 -16 -16 -16 -16 -17 -16 -16 -16 -16 -16 -16 -16 -16 -17 -17 -17
-14 -14 -14 -14 -14 -15 -15 -15 -15 -15 -15 -15 -15 -15 -15 -16 -15 -16 -15 -15 -15 -16 -16 -16 -16 -16 -16 -16 -16 -16 -16 -16 -16 -16 -16 -16 -16 -16 -16 -17 -18 -18 -18
-14 -14 -14 -14 -15 -15 -15 -15 -15 -15 -15 -14 -15 -15 -15 -15 -16 -16 -16 -16 -16 -16 -16 -16 -16 -16 -16 -16 -16 -16 -16 -16 -16 -16 -16 -16 -16 -17 -17 -18 -18 -18 -18
-14 -14 -14 -14 -14 -14 -14 -15 -15 -15 -15 -15 -16 -15 -15 -15 -15 -15 -16 -16 -15 -15 -16 -16 -16 -17 -17 -16 -17 -16 -16 -16 -16 -16 -16 -17 -17 -17 -19 -18 -18 -19 -19
-14 -14 -14 -14 -14 -14 -14 -15 -15 -15 -16 -15 -15 -16 -16 -15 -15 -15 -15 -16 -16 -16 -16 -16 -17 -17 -17 -17 -17 -16 -16 -16 -16 -16 -17 -17 -17 -18 -18 -19 -19 -19 -19
-15 -15 -15 -15 -14 -14 -14 -14 -15 -15 -15 -15 -15 -15 -15 -15 -15 -15 -15 -16 -16 -16 -16 -17 -17 -17 -17 -17 -17 -17 -17 -17 -17 -17 -17 -17 -18 -18 -18 -18 -19 -19 -19
-15 -15 -15 -16 -15 -15 -14 -14 -14 -15 -15 -16 -16 -15 -16 -15 -16 -15 -15 -15 -16 -16 -16 -17 -17 -17 -17 -17 -17 -17 -17 -17 -17 -17 -17 -18 -18 -18 -18 -19 -19 -19 -19
-16 -15 -15 -15 -15 -16 -16 -15 -15 -15 -15 -15 -15 -16 -16 -16 -16 -16 -16 -16 -16 -17 -17 -17 -17 -17 -17 -17 -17 -17 -17 -17 -17 -17 -18 -18 -18 -18 -19 -19 -19 -19 -20
-16 -15 -15 -15 -15 -15 -15 -16 -16 -15 -15 -15 -16 -16 -16 -16 -16 -16 -17 -17 -18 -17 -17 -17 -17 -17 -17 -17 -17 -17 -17 -17 -17 -17 -18 -18 -19 -19 -19 -19 -19 -20 -20
-16 -16 -16 -15 -14 -15 -15 -15 -15 -15 -15 -15 -15 -16 -16 -16 -17 -17 -17 -17 -17 -17 -17 -17 -17 -17 -17 -17 -17 -17 -17 -17 -18 -18 -18 -19 -19 -19 -19 -20 -20 -21 -21
-16 -16 -15 -15 -16 -15 -15 -15 -15 -15 -15 -15 -16 -16 -16 -16 -17 -17 -17 -17 -17 -17 -17 -17 -17 -17 -17 -17 -17 -18 -18 -18 -18 -19 -19 -19 -19 -20 -20 -20 -21 -21 -21
-16 -16 -16 -16 -15 -15 -15 -15 -14 -15 -15 -15 -15 -15 -16 -16 -16 -16 -16 -16 -16 -16 -16 -17 -17 -17 -17 -18 -18 -18 -18 -19 -19 -19 -19 -19 -20 -20 -20 -21 -21 -21 -21
-16 -16 -16 -16 -15 -15 -15 -15 -15 -14 -14 -15 -15 -15 -15 -16 -16 -16 -16 -16 -17 -17 -17 -17 -17 -17 -18 -18 -18 -18 -19 -19 -19 -19 -20 -20 -20 -21 -21 -21 -21 -21 -21
-16 -16 -16 -15 -15 -15 -15 -15 -15 -14 -14 -14 -15 -15 -15 -15 -16 -17 -17 -17 -17 -17 -17 -17 -17 -18 -18 -18 -18 -19 -19 -19 -20 -20 -20 -20 -20 -21 -21 -21 -21 -21 -22
-16 -15 -16 -16 -16 -15 -16 -15 -15 -15 -15 -15 -15 -15 -15 -16 -16 -17 -17 -17 -17 -17 -17 -17 -18 -18 -18 -18 -19 -19 -19 -19 -20 -20 -20 -21 -21 -22 -22 -22 -22 -22 -23
-16 -15 -16 -16 -16 -16 -16 -16 -16 -16 -15 -15 -15 -15 -16 -16 -16 -17 -17 -17 -17 -17 -18 -18 -18 -18 -18 -19 -19 -19 -20 -20 -20 -20 -20 -20 -21 -22 -22 -22 -23 -23 -24
-17 -16 -16 -17 -16 -16 -16 -16 -16 -16 -16 -16 -16 -16 -17 -17 -17 -17 -17 -17 -17 -18 -18 -18 -18 -19 -19 -19 -19 -20 -20 -20 -20 -20 -20 -21 -22 -22 -23 -23 -23 -24 -25
-17 -17 -17 -17 -17 -17 -17 -17 -17 -17 -17 -17 -17 -17 -17 -17 -17 -18 -18 -18 -18 -18 -18 -19 -19 -19 -19 -19 -20 -20 -20 -20 -20 -21 -21 -22 -22 -23 -23 -24 -25 -25 -25
-17 -17 -17 -17 -17 -17 -17 -18 -17 -17 -17 -17 -17 -17 -17 -18 -18 -18 -18 -18 -18 -19 -19 -19 -19 -19 -19 -20 -20 -20 -20 -21 -21 -22 -22 -23 -23 -23 -24 -25 -25 -26 -27

GFSMW_500_temp_057.txt.gz
Temp
-14 -14 -14 -13 -12 -12 -13 -13 -13 -12 -13 -13 -13 -13 -14 -14 -13 -13 -14 -14 -14 -14 -15 -15 -16 -16 -16 -16 -15 -16 -15 -16 -15 -15 -15 -15 -15 -15 -15 -15 -15 -15 -15
-14 -14 -14 -14 -14 -14 -14 -14 -13 -13 -12 -13 -13 -14 -14 -14 -13 -13 -14 -14 -15 -15 -15 -16 -16 -15 -15 -15 -15 -15 -15 -15 -15 -15 -16 -15 -15 -15 -15 -15 -15 -15 -16
-14 -14 -14 -14 -14 -14 -14 -14 -14 -14 -14 -14 -14 -14 -14 -14 -14 -14 -14 -15 -15 -15 -15 -16 -16 -15 -16 -16 -16 -16 -16 -15 -15 -15 -15 -15 -15 -16 -16 -15 -15 -15 -15
-14 -14 -14 -14 -14 -14 -14 -14 -14 -14 -14 -14 -13 -14 -14 -14 -13 -14 -15 -15 -15 -15 -16 -16 -15 -15 -16 -16 -16 -16 -16 -15 -15 -15 -15 -15 -15 -15 -15 -16 -15 -15 -15
-15 -14 -14 -14 -14 -14 -14 -14 -14 -14 -14 -14 -14 -14 -14 -14 -14 -15 -15 -15 -15 -15 -16 -16 -16 -16 -15 -15 -16 -16 -16 -16 -15 -16 -16 -16 -16 -16 -15 -16 -16 -15 -15
-14 -14 -14 -14 -14 -14 -14 -14 -14 -14 -15 -15 -15 -14 -14 -14 -14 -15 -15 -15 -15 -16 -15 -16 -16 -16 -16 -16 -15 -16 -16 -16 -15 -16 -16 -16 -16 -16 -16 -15 -16 -15 -16
-14 -14 -14 -14 -14 -14 -15 -14 -14 -14 -14 -14 -14 -14 -14 -14 -15 -15 -15 -15 -15 -16 -16 -16 -16 -16 -16 -15 -15 -15 -16 -16 -15 -16 -16 -16 -16 -16 -16 -16 -15 -16 -16
-14 -14 -14 -14 -14 -14 -14 -14 -15 -15 -15 -15 -14 -14 -14 -14 -15 -15 -16 -16 -16 -15 -15 -16 -16 -16 -16 -16 -16 -16 -16 -16 -16 -16 -16 -16 -16 -16 -16 -16 -15 -16 -16
-14 -15 -14 -14 -14 -15 -15 -14 -14 -14 -15 -15 -14 -14 -14 -15 -15 -15 -15 -15 -15 -16 -16 -16 -16 -16 -16 -16 -16 -16 -16 -16 -16 -16 -16 -16 -16 -16 -16 -16 -16 -16 -16
-15 -15 -14 -14 -14 -15 -15 -15 -15 -15 -15 -15 -15 -15 -15 -14 -15 -15 -16 -16 -16 -16 -16 -16 -16 -16 -16 -16 -16 -16 -16 -16 -16 -16 -16 -16 -16 -16 -16 -16 -16 -17 -17
-15 -15 -14 -14 -14 -14 -15 -15 -16 -16 -15 -15 -15 -15 -16 -16 -16 -16 -16 -16 -16 -16 -15 -15 -16 -16 -16 -16 -16 -16 -16 -16 -16 -16 -16 -16 -16 -16 -16 -17 -17 -17 -18
-15 -15 -14 -14 -14 -14 -14 -14 -15 -15 -16 -15 -15 -15 -15 -16 -15 -15 -15 -15 -15 -15 -15 -15 -16 -16 -16 -16 -16 -16 -17 -17 -17 -17 -16 -16 -17 -17 -17 -17 -18 -18 -19
-15 -15 -15 -15 -15 -15 -15 -15 -14 -15 -15 -15 -15 -15 -15 -15 -15 -15 -15 -14 -15 -16 -16 -16 -16 -16 -16 -16 -16 -17 -17 -17 -17 -17 -17 -17 -17 -17 -17 -18 -18 -19 -19
-16 -15 -15 -15 -15 -16 -15 -15 -14 -15 -15 -15 -15 -15 -15 -15 -15 -15 -15 -15 -16 -16 -16 -16 -16 -16 -16 -17 -17 -17 -17 -17 -17 -17 -17 -17 -17 -17 -18 -18 -19 -19 -19
-15 -16 -16 -16 -16 -16 -16 -15 -15 -15 -15 -15 -15 -15 -15 -15 -15 -15 -16 -16 -16 -16 -16 -16 -17 -17 -17 -17 -17 -17 -17 -18 -17 -18 -17 -17 -18 -18 -18 -18 -19 -19 -19
-15 -15 -15 -16 -15 -16 -16 -16 -16 -16 -16 -15 -15 -15 -15 -15 -16 -16 -16 -16 -17 -16 -16 -17 -17 -17 -17 -17 -17 -18 -18 -17 -18 -18 -18 -18 -18 -18 -19 -19 -19 -19 -19
-15 -16 -16 -16 -16 -16 -16 -16 -16 -16 -16 -16 -15 -15 -15 -15 -16 -16 -16 -17 -17 -17 -17 -17 -18 -17 -18 -17 -17 -18 -17 -18 -18 -18 -18 -18 -18 -19 -19 -19 -19 -19 -20
-15 -15 -16 -17 -16 -16 -16 -16 -16 -16 -16 -15 -15 -15 -15 -15 -15 -15 -16 -16 -16 -17 -17 -18 -18 -18 -18 -18 -18 -18 -18 -18 -18 -18 -18 -18 -19 -19 -19 -19 -19 -20 -20
-16 -16 -16 -17 -17 -16 -15 -16 -16 -16 -16 -15 -15 -15 -15 -15 -16 -16 -16 -17 -17 -17 -17 -17 -17 -17 -17 -17 -17 -18 -18 -18 -18 -18 -19 -19 -19 -19 -19 -19 -20 -20 -20
-15 -16 -17 -17 -17 -17 -16 -16 -16 -16 -15 -15 -15 -15 -15 -15 -15 -15 -16 -16 -16 -16 -17 -17 -17 -17 -17 -17 -18 -18 -18 -18 -18 -19 -19 -19 -19 -20 -20 -20 -20 -20 -20
-16 -16 -17 -17 -16 -16 -16 -16 -16 -16 -16 -16 -16 -15 -15 -15 -16 -16 -16 -16 -16 -16 -17 -17 -17 -17 -18 -18 -18 -18 -18 -18 -19 -19 -19 -19 -20 -20 -20 -20 -20 -20 -21
-16 -16 -16 -16 -16 -16 -16 -16 -16 -16 -16 -16 -16 -16 -16 -15 -16 -16 -16 -16 -16 -16 -17 -17 -17 -17 -17 -18 -18 -18 -18 -19 -19 -19 -19 -20 -20 -20 -20 -20 -20 -21 -21
-17 -17 -16 -16 -17 -17 -17 -17 -17 -17 -16 -16 -16 -16 -16 -16 -16 -16 -16 -16 -16 -16 -17 -17 -17 -17 -18 -18 -18 -18 -19 -19 -19 -19 -19 -20 -20 -20 -20 -21 -21 -22 -22
-17 -17 -17 -17 -17 -17 -17 -17 -17 -17 -16 -17 -17 -17 -17 -17 -17 -17 -17 -17 -17 -17 -17 -17 -17 -18 -18 -18 -19 -19 -19 -19 -19 -20 -20 -20 -20 -21 -21 -22 -22 -23 -23
-17 -17 -17 -17 -17 -17 -17 -17 -18 -18 -18 -17 -17 -17 -17 -17 -17 -17 -17 -17 -17 -18 -18 -18 -18 -18 -18 -19 -20 -19 -19 -20 -20 -20 -20 -21 -21 -21 -22 -22 -23 -24 -25
-17 -18 -18 -18 -18 -18 -18 -18 -18 -19 -18 -18 -18 -18 -18 -18 -18 -18 -18 -18 -18 -18 -19 -19 -19 -20 -19 -19 -20 -20 -20 -20 -20 -20 -21 -21 -22 -22 -22 -23 -24 -25 -26

GFSMW_500_temp_060.txt.gz
Temp
-15 -14 -14 -13 -13 -13 -13 -13 -13 -13 -13 -13 -13 -13 -14 -14 -14 -13 -13 -14 -13 -14 -14 -14 -15 -15 -16 -16 -16 -17 -17 -16 -17 -16 -16 -16 -16 -16 -15 -15 -15 -15 -15
-15 -14 -14 -14 -14 -14 -14 -13 -13 -13 -13 -13 -13 -12 -13 -13 -13 -13 -14 -14 -13 -14 -14 -14 -15 -16 -16 -16 -16 -16 -17 -16 -16 -16 -16 -16 -15 -15 -15 -15 -15 -15 -15
-14 -15 -14 -14 -14 -14 -15 -15 -14 -14 -13 -13 -13 -13 -13 -13 -13 -13 -14 -14 -14 -14 -15 -15 -16 -16 -16 -16 -16 -16 -15 -15 -15 -16 -15 -15 -15 -15 -16 -16 -16 -16 -16
-14 -14 -14 -14 -14 -14 -14 -14 -14 -14 -13 -13 -14 -13 -13 -14 -14 -14 -14 -14 -14 -15 -14 -15 -15 -16 -16 -16 -16 -16 -16 -16 -16 -16 -16 -16 -16 -16 -16 -16 -16 -15 -15
-14 -14 -14 -14 -14 -14 -14 -14 -14 -14 -14 -14 -14 -14 -14 -14 -13 -14 -14 -14 -14 -15 -15 -15 -15 -15 -16 -16 -16 -16 -16 -16 -16 -16 -16 -16 -16 -16 -15 -15 -16 -16 -16
-14 -14 -14 -14 -14 -14 -14 -14 -14 -14 -14 -14 -14 -14 -14 -15 -15 -15 -15 -15 -15 -15 -15 -15 -15 -16 -16 -16 -16 -16 -16 -16 -16 -16 -16 -16 -16 -16 -16 -16 -16 -16 -15
-15 -15 -14 -14 -14 -14 -14 -15 -15 -15 -14 -14 -14 -14 -14 -14 -15 -14 -15 -14 -15 -15 -15 -15 -16 -16 -16 -16 -16 -16 -16 -15 -15 -16 -16 -16 -16 -16 -16 -16 -16 -16 -16
-14 -15 -15 -15 -14 -15 -15 -15 -15 -15 -15 -14 -14 -14 -14 -14 -15 -15 -15 -15 -15 -15 -15 -15 -15 -16 -16 -16 -16 -16 -16 -15 -15 -16 -16 -16 -16 -16 -16 -16 -16 -16 -16
-14 -14 -14 -14 -15 -15 -15 -15 -15 -15 -15 -15 -14 -14 -14 -15 -15 -15 -15 -15 -15 -15 -15 -15 -16 -16 -16 -16 -16 -16 -16 -16 -16 -16 -16 -17 -16 -16 -16 -16 -16 -16 -16
-14 -14 -15 -15 -15 -15 -15 -15 -15 -15 -15 -15 -15 -15 -15 -15 -16 -15 -15 -15 -16 -16 -16 -16 -16 -16 -16 -16 -16 -16 -16 -16 -16 -16 -16 -16 -16 -16 -16 -16 -16 -16 -17
-14 -14 -14 -14 -15 -14 -15 -15 -15 -15 -16 -16 -16 -16 -15 -15 -15 -15 -15 -16 -16 -16 -16 -15 -16 -16 -15 -15 -16 -16 -16 -16 -16 -16 -16 -16 -16 -16 -16 -17 -17 -17 -17
-14 -15 -14 -14 -14 -15 -15 -15 -15 -15 -15 -15 -15 -15 -15 -15 -15 -15 -16 -16 -16 -16 -16 -16 -16 -16 -15 -16 -16 -16 -16 -16 -16 -16 -17 -16 -17 -17 -17 -17 -17 -18 -18
-15 -15 -15 -15 -15 -15 -15 -15 -15 -15 -15 -15 -15 -15 -15 -15 -15 -16 -16 -16 -15 -15 -15 -15 -15 -15 -16 -16 -16 -16 -16 -16 -17 -17 -17 -17 -17 -17 -17 -17 -17 -18 -18
-15 -15 -15 -15 -15 -15 -15 -15 -15 -16 -16 -15 -15 -15 -15 -15 -15 -15 -15 -15 -15 -15 -16 -16 -16 -16 -16 -16 -17 -17 -17 -17 -17 -17 -17 -17 -17 -17 -17 -18 -18 -18 -18
-16 -15 -15 -16 -16 -15 -16 -15 -15 -15 -15 -15 -15 -15 -15 -15 -15 -15 -15 -15 -15 -16 -16 -16 -16 -16 -17 -17 -17 -17 -17 -17 -17 -17 -17 -17 -17 -18 -18 -18 -18 -18 -18
-16 -15 -16 -16 -16 -16 -16 -16 -16 -16 -16 -15 -15 -15 -15 -15 -15 -15 -15 -15 -15 -16 -15 -15 -16 -16 -17 -17 -17 -17 -17 -17 -17 -17 -17 -17 -18 -18 -18 -18 -18 -19 -19
-16 -16 -16 -16 -16 -16 -16 -16 -16 -16 -16 -16 -16 -16 -15 -15 -15 -15 -15 -15 -15 -16 -16 -16 -16 -16 -17 -17 -17 -18 -17 -17 -17 -17 -18 -18 -18 -18 -18 -18 -19 -19 -20
-16 -16 -16 -16 -16 -17 -17 -17 -17 -17 -16 -16 -16 -16 -15 -15 -16 -15 -15 -16 -16 -16 -16 -16 -16 -17 -17 -17 -17 -17 -17 -17 -17 -18 -18 -18 -18 -18 -19 -19 -19 -20 -20
-16 -15 -16 -16 -17 -17 -17 -17 -17 -17 -16 -16 -16 -16 -16 -15 -15 -16 -16 -16 -16 -16 -16 -16 -16 -17 -17 -17 -17 -17 -17 -17 -18 -18 -18 -18 -18 -19 -19 -19 -20 -20 -20
-17 -17 -16 -16 -17 -17 -17 -17 -16 -16 -17 -17 -16 -16 -16 -16 -15 -16 -15 -15 -15 -16 -16 -16 -16 -16 -17 -17 -17 -17 -17 -18 -18 -18 -18 -19 -19 -19 -19 -20 -20 -20 -20
-16 -17 -17 -16 -17 -17 -17 -17 -17 -17 -17 -17 -16 -16 -16 -16 -16 -16 -16 -16 -16 -16 -16 -16 -16 -17 -17 -17 -17 -17 -18 -18 -18 -19 -19 -19 -19 -19 -20 -20 -20 -20 -20
-16 -16 -17 -16 -16 -16 -17 -17 -17 -17 -17 -17 -17 -16 -16 -16 -16 -16 -16 -16 -16 -16 -16 -17 -17 -17 -17 -17 -18 -18 -18 -19 -19 -19 -19 -19 -20 -20 -20 -21 -20 -20 -20
-17 -17 -17 -16 -16 -17 -17 -17 -17 -18 -17 -17 -17 -17 -17 -17 -17 -16 -17 -17 -17 -17 -17 -17 -17 -17 -18 -18 -18 -18 -18 -19 -19 -19 -19 -20 -20 -21 -20 -20 -20 -21 -21
-17 -17 -17 -17 -17 -17 -17 -17 -18 -18 -17 -17 -17 -17 -17 -17 -18 -17 -17 -17 -17 -17 -17 -18 -18 -18 -18 -18 -19 -19 -19 -19 -19 -20 -21 -20 -20 -20 -21 -21 -21 -21 -21
-17 -18 -18 -18 -17 -17 -17 -17 -17 -18 -18 -18 -18 -18 -18 -18 -18 -18 -18 -18 -18 -18 -18 -18 -18 -19 -19 -19 -20 -20 -20 -20 -20 -20 -20 -21 -21 -21 -21 -21 -21 -21 -21
-17 -17 -17 -17 -17 -17 -17 -17 -17 -18 -18 -18 -18 -18 -18 -18 -18 -18 -18 -18 -18 -18 -18 -18 -18 -18 -19 -19 -19 -19 -20 -20 -20 -21 -21 -21 -20 -21 -21 -21 -21 -22 -23